Overview Statistics Trail Chart Weather Telemetry Raw packets
 

This is the latest recevied weather packets stored in our database for station/object KQ7A. If no packets are shown the sender has not sent any weather packets the latest 10 day(s).

<< 55 56 57 58 59 60 61 >>
Time Temp. Humidity Pressure Rain* Wind** Luminosity Snow
1788302935 22.22° C 21% 1015.1 hPa 0 mm - 381 W/m² -
1788302632 22.22° C 22% 1015.2 hPa 0 mm - 373 W/m² -
1788302328 22.78° C 19% 1015.1 hPa 0 mm - 490 W/m² -
1788302023 22.78° C 20% 1015.3 hPa 0 mm - 540 W/m² -
1788301719 22.22° C 20% 1015.1 hPa 0 mm - 576 W/m² -
1788301415 22.22° C 20% 1015.3 hPa 0 mm - 271 W/m² -
1788301111 23.33° C 19% 1015.4 hPa 0 mm - 280 W/m² -
1788300806 23.33° C 18% 1015.5 hPa 0 mm - 698 W/m² -
1788300506 22.78° C 18% 1015.4 hPa 0 mm - 446 W/m² -
1788300205 23.33° C 17% 1015.2 hPa 0 mm - 412 W/m² -
1788299904 23.33° C 17% 1015.1 hPa 0 mm - 523 W/m² -
1788299604 23.33° C 16% 1015.1 hPa 0 mm - 707 W/m² -
1788299302 23.89° C 20% 1015 hPa 0 mm - 532 W/m² -
1788299001 24.44° C 18% 1015.1 hPa 0 mm - 616 W/m² -
1788298696 23.89° C 17% 1015 hPa 0 mm - 478 W/m² -
1788298396 24.44° C 17% 1015.3 hPa 0 mm - 712 W/m² -
1788298090 24.44° C 17% 1014.8 hPa 0 mm - 626 W/m² -
1788297786 23.89° C 17% 1015 hPa 0 mm - 608 W/m² -
1788297482 24.44° C 16% 1014.8 hPa 0 mm - 452 W/m² -
1788297178 24.44° C 15% 1015 hPa 0 mm - 572 W/m² -
1788296873 24.44° C 15% 1014.7 hPa 0 mm - 788 W/m² -
1788296569 25° C 15% 1015.1 hPa 0 mm - 816 W/m² -
1788296265 25° C 17% 1015 hPa 0 mm - 649 W/m² -
1788295964 24.44° C 17% 1015 hPa 0 mm - 718 W/m² -
1788295660 25° C 17% 1015.1 hPa 0 mm - 783 W/m² -

* Rain latest hour (hover to see other rain measurements)
** Current wind speed in m/s (hover to see current wind gust speed)